Tracking 25709 objects as of 24-May-2022
HD Live streaming from Space Station
objects crossing your sky now

SL-23 R/B

Track SL-23 R/B now!


NORAD ID: 34112
Int'l Code: 2009-009B
Perigee: 1,363.3 km
Apogee: 35,771.5 km
Inclination: 35.0 °
Period: 653.2 minutes
Semi major axis: 24938 km
RCS: 13.401 m2 (large)
Launch date: February 26, 2009
Source: Commonwealth of Independent States (former USSR) (CIS)
Launch site: TYURATAM MISSILE AND SPACE COMPLEX (TTMTR)

Note: This is a ROCKET BODY
aabbcc
Your satellite tracking list
Your tracking list is empty




NASA's NSSDC Master Catalog

Two Line Element Set (TLE):
1 34112U 09009B   22143.47456387 -.00000167  00000-0  00000-0 0  9990
2 34112  34.9617 288.9553 6898636 342.1370 244.1503  2.20445063106595
Source of the keplerian elements: AFSPC